Edenton, NC

9:54 PM EDT on March 26, 2017 (GMT -0400)
Northeastern Regional

Weather History for KEDE - March, 2012

Change the Weather History Date:

Monday, March 5, 2012

  Actual Average Record
Temperature  
Mean Temperature 42 °F -  
Max Temperature 53 °F 62 °F 82 °F (1976)
Min Temperature 32 °F 42 °F 20 °F (1960)
Degree Days  
Heating Degree Days 22    
Moisture  
Dew Point 32 °F    
Average Humidity 68    
Maximum Humidity 93    
Minimum Humidity 44    
Precipitation  
Precipitation 0.00 in - - ()
Sea Level Pressure  
Sea Level Pressure 30.11 in    
Wind  
Wind Speed 10 mph (West)    
Max Wind Speed 26 mph    
Max Gust Speed 43 mph    
Visibility 10 miles    
Events Rain    
Averages and records for this station are not official NWS values.
T = Trace of Precipitation, MM = Missing Value Source: NWS Daily Summary

Daily Weather History Graph

Daily Weather History Graph

Search for Another Location

Airport or City:

Trip Planner

Search our weather history database for the weather conditions in past years. The results will help you decide how hot, cold, wet, or windy it might be!

Date:

Astronomy

Mar. 05, 2012 Rise Set
Actual Time 6:30 AM EST 6:05 PM EST
Civil Twilight 6:04 AM EST 6:30 PM EST
Nautical Twilight 5:35 AM EST 7:00 PM EST
Astronomical Twilight 5:05 AM EST 7:30 PM EST
Moon 3:25 PM EST (3/5) 4:23 AM EST (3/5)
Length of Visible Light 12h 26m
Length of Day
11h 34m
Waxing Gibbous, 91% of the Moon is Illuminated
Mar 5
Waxing Gibbous
Mar 8
Full
Mar 14
Last Quarter
Mar 22
New
Mar 30
First Quarter

Hourly Weather History & Observations

Time (EST) Temp. Windchill Dew Point Humidity Pressure Visibility Wind Dir Wind Speed Gust Speed Precip Events Conditions
12:15 AM 42.8 °F 37.5 °F 26.6 °F 53% 30.02 in 10.0 mi West 9.2 mph - N/A   Clear
12:55 AM 41.0 °F 35.8 °F 28.4 °F 61% 30.04 in 10.0 mi West 8.1 mph - N/A   Clear
1:15 AM 41.0 °F 35.8 °F 28.4 °F 61% 30.04 in 10.0 mi West 8.1 mph - N/A   Clear
1:55 AM 41.0 °F 34.3 °F 26.6 °F 57% 30.04 in 10.0 mi WNW 11.5 mph 18.4 mph N/A   Clear
2:15 AM 41.0 °F 35.8 °F 26.6 °F 57% 30.05 in 10.0 mi West 8.1 mph - N/A   Clear
2:35 AM 41.0 °F 36.4 °F 28.4 °F 61% 30.05 in 10.0 mi West 6.9 mph - N/A   Clear
2:55 AM 41.0 °F 36.4 °F 26.6 °F 57% 30.05 in 10.0 mi West 6.9 mph - N/A   Clear
3:15 AM 41.0 °F 35.8 °F 26.6 °F 57% 30.06 in 10.0 mi WSW 8.1 mph - N/A   Clear
3:35 AM 41.0 °F 37.1 °F 30.2 °F 65% 30.06 in 10.0 mi SW 5.8 mph - N/A   Clear
3:55 AM 39.2 °F 34.2 °F 32.0 °F 75% 30.06 in 10.0 mi SW 6.9 mph - N/A   Clear
4:15 AM 41.0 °F 38.0 °F 32.0 °F 70% 30.06 in 10.0 mi SW 4.6 mph - N/A   Clear
4:35 AM 39.2 °F 35.0 °F 32.0 °F 75% 30.06 in 10.0 mi SW 5.8 mph - N/A   Clear
4:55 AM 39.2 °F 37.0 °F 32.0 °F 75% 30.05 in 10.0 mi SW 3.5 mph - N/A   Clear
5:15 AM 35.6 °F - 32.0 °F 87% 30.05 in 10.0 mi Calm Calm - N/A   Clear
5:35 AM 35.6 °F 30.7 °F 32.0 °F 87% 30.05 in 10.0 mi SSW 5.8 mph - N/A   Scattered Clouds
5:55 AM 37.4 °F 32.1 °F 32.0 °F 81% 30.05 in 10.0 mi SSW 6.9 mph - N/A   Mostly Cloudy
6:15 AM 37.4 °F 30.8 °F 32.0 °F 81% 30.05 in 10.0 mi SSW 9.2 mph - N/A   Overcast
6:35 AM 37.4 °F 30.3 °F 32.0 °F 81% 30.04 in 10.0 mi South 10.4 mph - N/A   Scattered Clouds
6:55 AM 39.2 °F 31.6 °F 32.0 °F 75% 30.05 in 10.0 mi South 12.7 mph - N/A   Scattered Clouds
7:15 AM 41.0 °F 34.3 °F 32.0 °F 70% 30.06 in 10.0 mi South 11.5 mph 16.1 mph N/A   Overcast
7:35 AM 41.0 °F 35.2 °F 32.0 °F 70% 30.06 in 10.0 mi South 9.2 mph - N/A   Mostly Cloudy
7:55 AM 42.8 °F 38.0 °F 33.8 °F 70% 30.05 in 10.0 mi South 8.1 mph - N/A   Scattered Clouds
8:15 AM 42.8 °F 38.0 °F 33.8 °F 70% 30.05 in 10.0 mi SSE 8.1 mph - N/A   Scattered Clouds
8:35 AM 42.8 °F 38.0 °F 33.8 °F 70% 30.05 in 10.0 mi South 8.1 mph - N/A   Scattered Clouds
9:15 AM 46.4 °F 41.9 °F 35.6 °F 66% 30.01 in 10.0 mi South 9.2 mph 28.8 mph N/A Rain Light Rain
9:35 AM 46.4 °F 41.5 °F 35.6 °F 66% 29.99 in 10.0 mi SSE 10.4 mph - N/A   Scattered Clouds
9:55 AM 46.4 °F 41.9 °F 35.6 °F 66% 29.96 in 10.0 mi SSE 9.2 mph - N/A   Scattered Clouds
10:15 AM 48.2 °F - 35.6 °F 62% 29.97 in 10.0 mi West 9.2 mph - N/A   Scattered Clouds
10:35 AM 50.0 °F - 35.6 °F 58% 29.97 in 10.0 mi SW 16.1 mph 25.3 mph N/A   Scattered Clouds
10:55 AM 50.0 °F - 35.6 °F 58% 29.97 in 10.0 mi WSW 10.4 mph 27.6 mph N/A Rain Light Rain
11:15 AM 50.0 °F - 33.8 °F 54% 29.97 in 10.0 mi WSW 16.1 mph 25.3 mph N/A   Mostly Cloudy
11:35 AM 50.0 °F - 33.8 °F 54% 29.98 in 10.0 mi WSW 24.2 mph 35.7 mph N/A   Light Drizzle
11:55 AM 50.0 °F - 32.0 °F 50% 29.99 in 10.0 mi West 13.8 mph 26.5 mph N/A   Overcast
12:15 PM 50.0 °F - 33.8 °F 54% 29.98 in 10.0 mi WSW 11.5 mph 18.4 mph N/A   Mostly Cloudy
12:35 PM 51.8 °F - 33.8 °F 50% 29.98 in 10.0 mi WSW 19.6 mph 26.5 mph N/A   Scattered Clouds
12:55 PM 53.6 °F - 32.0 °F 44% 29.98 in 10.0 mi West 20.7 mph 28.8 mph N/A   Scattered Clouds
1:15 PM 53.6 °F - 32.0 °F 44% 29.98 in 10.0 mi West 17.3 mph 24.2 mph N/A   Mostly Cloudy
1:35 PM 53.6 °F - 32.0 °F 44% 29.98 in 10.0 mi West 17.3 mph 26.5 mph N/A   Mostly Cloudy
1:55 PM 48.2 °F - 35.6 °F 62% 30.00 in 7.0 mi WNW 16.1 mph 39.1 mph N/A Rain Light Rain
2:15 PM 50.0 °F - 35.6 °F 58% 30.02 in 10.0 mi NW 24.2 mph 33.4 mph N/A   Mostly Cloudy
2:35 PM 46.4 °F 38.3 °F 37.4 °F 71% 30.07 in 7.0 mi NW 23.0 mph 35.7 mph N/A Rain Light Rain
2:55 PM 46.4 °F 38.1 °F 37.4 °F 71% 30.09 in 10.0 mi NW 24.2 mph 32.2 mph N/A   Overcast
3:15 PM 44.6 °F 35.5 °F 33.8 °F 66% 30.11 in 10.0 mi NW 25.3 mph 42.6 mph N/A   Overcast
3:35 PM 44.6 °F 36.4 °F 32.0 °F 61% 30.14 in 10.0 mi NNW 20.7 mph 34.5 mph N/A   Mostly Cloudy
3:55 PM 44.6 °F 36.1 °F 33.8 °F 66% 30.17 in 10.0 mi NW 21.9 mph 31.1 mph N/A   Scattered Clouds
4:15 PM 42.8 °F 32.9 °F 32.0 °F 66% 30.20 in 10.0 mi NW 26.5 mph 33.4 mph N/A   Scattered Clouds
4:35 PM 42.8 °F 34.3 °F 32.0 °F 66% 30.21 in 10.0 mi NNW 19.6 mph 35.7 mph N/A   Mostly Cloudy
4:55 PM 42.8 °F 35.4 °F 32.0 °F 66% 30.23 in 10.0 mi NNW 15.0 mph 24.2 mph N/A   Scattered Clouds
5:15 PM 42.8 °F 35.1 °F 30.2 °F 61% 30.25 in 10.0 mi NNW 16.1 mph 31.1 mph N/A   Clear
5:35 PM 41.0 °F 34.7 °F 32.0 °F 70% 30.26 in 10.0 mi North 10.4 mph 19.6 mph N/A   Clear
5:55 PM 41.0 °F 33.9 °F 32.0 °F 70% 30.28 in 10.0 mi North 12.7 mph 16.1 mph N/A   Clear
6:15 PM 39.2 °F 33.0 °F 32.0 °F 75% 30.29 in 10.0 mi NNW 9.2 mph - N/A   Clear
6:55 PM 37.4 °F 33.8 °F 32.0 °F 81% 30.32 in 10.0 mi NNW 4.6 mph - N/A   Clear
7:15 PM 37.4 °F 34.9 °F 32.0 °F 81% 30.34 in 10.0 mi NNW 3.5 mph - N/A   Clear
7:55 PM 35.6 °F 32.8 °F 32.0 °F 87% 30.36 in 10.0 mi NNW 3.5 mph - N/A   Clear
8:15 PM 37.4 °F - 32.0 °F 81% 30.37 in 10.0 mi Calm Calm - N/A   Clear
8:35 PM 37.4 °F - 32.0 °F 81% 30.38 in 10.0 mi Calm Calm - N/A   Clear
8:55 PM 33.8 °F - 32.0 °F 93% 30.40 in 10.0 mi Calm Calm - N/A   Clear
9:15 PM 32.0 °F - 30.2 °F 93% 30.41 in 10.0 mi Calm Calm - N/A   Clear
9:35 PM 32.0 °F - 30.2 °F 93% 30.41 in 10.0 mi Calm Calm - N/A   Clear
9:55 PM 32.0 °F - 30.2 °F 93% 30.43 in 10.0 mi Calm Calm - N/A   Clear
10:15 PM 32.0 °F - 30.2 °F 93% 30.44 in 10.0 mi Calm Calm - N/A   Clear
10:35 PM 35.6 °F 31.7 °F 32.0 °F 87% 30.45 in 10.0 mi NW 4.6 mph - N/A   Clear
10:55 PM 37.4 °F 32.8 °F 32.0 °F 81% 30.46 in 10.0 mi NW 5.8 mph - N/A   Clear
11:15 PM 35.6 °F 31.7 °F 32.0 °F 87% 30.46 in 10.0 mi NNW 4.6 mph - N/A   Clear
11:35 PM 33.8 °F 29.6 °F 30.2 °F 87% 30.47 in 10.0 mi NNW 4.6 mph - N/A   Clear
11:55 PM 33.8 °F 29.6 °F 30.2 °F 87% 30.48 in 10.0 mi North 4.6 mph - N/A   Clear